When you browse on this site, cookies collect data to enhance your experience and personalize the content and advertising you see.
Visit our Privacy Policy to learn more. By continuing to use the site, you agree to this use of cookies and data.
  • en France
  • Liste des pays
  • À 7 jours
  • Température de l'eau
  • Carte satellitaire
  • Carte météo
  • Widgets météo
  • user-avatar
    Se connecter

    Météo par heure à Mansoa

    Ce jour, 17 Juillet, Mercredi

    Heure Température Précipitation Vent Pression Humidité
    00:00 +26°C° 0.3 mm 1 m/s 758 mmHg 89%
    01:00 +26°C° 0.3 mm 1 m/s 758 mmHg 89%
    02:00 +26°C° 0.3 mm 1 m/s 758 mmHg 89%
    03:00 +26°C° 0.3 mm 1 m/s 758 mmHg 90%
    04:00 +26°C° 0.3 mm 1 m/s 758 mmHg 90%
    05:00 +24°C° 0.3 mm 0 m/s 758 mmHg 90%
    06:00 +26°C° 0.1 mm 1 m/s 758 mmHg 89%
    07:00 +27°C° 0.1 mm 2 m/s 759 mmHg 88%
    08:00 +27°C° 0.1 mm 2 m/s 760 mmHg 86%
    09:00 +28°C° 0.4 mm 3 m/s 760 mmHg 84%
    10:00 +28°C° 0.4 mm 3 m/s 760 mmHg 82%
    11:00 +29°C° 0.4 mm 3 m/s 760 mmHg 80%
    12:00 +29°C° 0.7 mm 3 m/s 759 mmHg 78%
    13:00 +29°C° 0.7 mm 3 m/s 759 mmHg 77%
    14:00 +29°C° 0.7 mm 3 m/s 758 mmHg 76%
    15:00 +29°C° 0.1 mm 3 m/s 758 mmHg 78%
    16:00 +28°C° 0.1 mm 2 m/s 758 mmHg 79%
    17:00 +28°C° 0.1 mm 2 m/s 758 mmHg 81%
    18:00 +27°C° 0.2 mm 2 m/s 759 mmHg 84%
    19:00 +27°C° 0.2 mm 2 m/s 759 mmHg 86%
    20:00 +26°C° 0.2 mm 2 m/s 760 mmHg 89%
    21:00 +26°C° 0 mm 2 m/s 760 mmHg 89%
    22:00 +26°C° 0 mm 2 m/s 760 mmHg 89%
    23:00 +26°C° 0 mm 1 m/s 761 mmHg 90%

    Demain, 18 Juillet, Jeudi

    Heure Température Précipitation Vent Pression Humidité
    00:00 +26°C° 0.1 mm 1 m/s 760 mmHg 90%
    01:00 +25°C° 0.1 mm 1 m/s 760 mmHg 91%
    02:00 +25°C° 0.1 mm 1 m/s 759 mmHg 92%
    03:00 +25°C° 0 mm 2 m/s 759 mmHg 92%
    04:00 +25°C° 0 mm 2 m/s 759 mmHg 92%
    05:00 +25°C° 0 mm 2 m/s 759 mmHg 92%
    06:00 +25°C° 0 mm 2 m/s 759 mmHg 92%
    07:00 +26°C° 0 mm 1 m/s 760 mmHg 92%
    08:00 +26°C° 0 mm 1 m/s 760 mmHg 92%
    09:00 +28°C° 0.1 mm 2 m/s 760 mmHg 84%
    10:00 +29°C° 0.1 mm 2 m/s 760 mmHg 76%
    11:00 +31°C° 0.1 mm 2 m/s 760 mmHg 69%
    12:00 +31°C° 0.3 mm 2 m/s 760 mmHg 67%
    13:00 +33°C° 0.3 mm 3 m/s 759 mmHg 66%
    14:00 +33°C° 0.3 mm 3 m/s 759 mmHg 64%
    15:00 +31°C° 1.8 mm 3 m/s 758 mmHg 69%
    16:00 +30°C° 1.8 mm 2 m/s 758 mmHg 73%
    17:00 +30°C° 1.8 mm 2 m/s 758 mmHg 78%
    18:00 +29°C° 0.2 mm 3 m/s 758 mmHg 81%
    19:00 +28°C° 0.2 mm 3 m/s 759 mmHg 83%
    20:00 +27°C° 0.2 mm 3 m/s 759 mmHg 86%
    21:00 +27°C° 0 mm 3 m/s 759 mmHg 87%
    22:00 +27°C° 0 mm 3 m/s 760 mmHg 87%
    23:00 +26°C° 0 mm 3 m/s 760 mmHg 87%

    Après-demain, 19 Juillet, Vendredi

    Heure Température Précipitation Vent Pression Humidité
    00:00 +26°C° 0 mm 3 m/s 759 mmHg 89%
    01:00 +26°C° 0 mm 2 m/s 759 mmHg 90%
    02:00 +25°C° 0 mm 2 m/s 758 mmHg 91%
    03:00 +25°C° 0 mm 2 m/s 758 mmHg 92%
    04:00 +25°C° 0 mm 2 m/s 758 mmHg 93%
    05:00 +25°C° 0 mm 2 m/s 758 mmHg 94%
    06:00 +26°C° 0 mm 2 m/s 758 mmHg 89%
    07:00 +27°C° 0 mm 3 m/s 759 mmHg 85%
    08:00 +28°C° 0 mm 3 m/s 759 mmHg 81%
    09:00 +29°C° 0 mm 3 m/s 759 mmHg 73%
    10:00 +31°C° 0 mm 3 m/s 759 mmHg 65%
    11:00 +34°C° 0 mm 3 m/s 759 mmHg 57%
    12:00 +34°C° 0 mm 3 m/s 758 mmHg 55%
    13:00 +35°C° 0 mm 3 m/s 758 mmHg 52%
    14:00 +35°C° 0 mm 3 m/s 757 mmHg 50%
    15:00 +34°C° 0 mm 3 m/s 757 mmHg 55%
    16:00 +33°C° 0 mm 4 m/s 756 mmHg 59%
    17:00 +33°C° 0 mm 4 m/s 756 mmHg 64%
    18:00 +30°C° 0 mm 4 m/s 756 mmHg 67%
    19:00 +29°C° 0 mm 3 m/s 757 mmHg 69%
    20:00 +28°C° 0 mm 3 m/s 757 mmHg 72%
    21:00 +28°C° 0 mm 3 m/s 758 mmHg 74%
    22:00 +27°C° 0 mm 3 m/s 758 mmHg 76%
    23:00 +26°C° 0 mm 2 m/s 758 mmHg 78%

    20 Juillet, Samedi

    Heure Température Précipitation Vent Pression Humidité
    00:00 +26°C° 0 mm 2 m/s 758 mmHg 80%
    01:00 +26°C° 0 mm 2 m/s 757 mmHg 82%
    02:00 +25°C° 0 mm 2 m/s 757 mmHg 84%
    03:00 +25°C° 0 mm 1 m/s 757 mmHg 85%
    04:00 +25°C° 0 mm 1 m/s 757 mmHg 86%
    05:00 +24°C° 0 mm 1 m/s 757 mmHg 87%
    06:00 +25°C° 0 mm 1 m/s 758 mmHg 84%
    07:00 +26°C° 0 mm 1 m/s 758 mmHg 81%
    08:00 +27°C° 0 mm 2 m/s 758 mmHg 78%
    09:00 +28°C° 0 mm 2 m/s 758 mmHg 72%
    10:00 +30°C° 0 mm 2 m/s 758 mmHg 65%
    11:00 +31°C° 0 mm 2 m/s 758 mmHg 59%
    12:00 +32°C° 0 mm 2 m/s 758 mmHg 58%
    13:00 +33°C° 0 mm 3 m/s 757 mmHg 58%
    14:00 +33°C° 0 mm 3 m/s 757 mmHg 57%
    15:00 +31°C° 0 mm 3 m/s 757 mmHg 62%
    16:00 +30°C° 0 mm 3 m/s 756 mmHg 67%
    17:00 +28°C° 0 mm 3 m/s 756 mmHg 72%
    18:00 +28°C° 0 mm 3 m/s 757 mmHg 74%
    19:00 +27°C° 0 mm 2 m/s 757 mmHg 76%
    20:00 +27°C° 0 mm 2 m/s 758 mmHg 78%
    21:00 +26°C° 0 mm 2 m/s 758 mmHg 79%
    22:00 +26°C° 0 mm 2 m/s 758 mmHg 79%
    23:00 +26°C° 0 mm 1 m/s 759 mmHg 80%

    21 Juillet, Dimanche

    Heure Température Précipitation Vent Pression Humidité
    00:00 +26°C° 0 mm 1 m/s 758 mmHg 81%
    01:00 +26°C° 0 mm 1 m/s 758 mmHg 81%
    02:00 +26°C° 0 mm 1 m/s 757 mmHg 82%
    03:00 +25°C° 0 mm 1 m/s 758 mmHg 83%
    04:00 +25°C° 0 mm 1 m/s 758 mmHg 84%
    05:00 +25°C° 0 mm 1 m/s 758 mmHg 85%
    06:00 +26°C° 0 mm 1 m/s 758 mmHg 82%
    07:00 +25°C° 0 mm 0 m/s 759 mmHg 78%
    08:00 +26°C° 0 mm 0 m/s 759 mmHg 75%
    09:00 +29°C° 0 mm 1 m/s 759 mmHg 70%
    10:00 +31°C° 0 mm 1 m/s 759 mmHg 65%
    11:00 +32°C° 0 mm 2 m/s 759 mmHg 60%
    12:00 +32°C° 0 mm 2 m/s 758 mmHg 58%
    13:00 +34°C° 0 mm 3 m/s 758 mmHg 57%
    14:00 +34°C° 0 mm 3 m/s 757 mmHg 55%
    15:00 +34°C° 0 mm 3 m/s 757 mmHg 58%
    16:00 +33°C° 0 mm 3 m/s 757 mmHg 60%
    17:00 +32°C° 0 mm 4 m/s 757 mmHg 63%
    18:00 +30°C° 0.2 mm 3 m/s 757 mmHg 68%
    19:00 +28°C° 0.2 mm 3 m/s 758 mmHg 74%
    20:00 +27°C° 0.2 mm 2 m/s 759 mmHg 80%
    21:00 +27°C° 0.1 mm 2 m/s 759 mmHg 81%
    22:00 +27°C° 0.1 mm 2 m/s 759 mmHg 83%
    23:00 +27°C° 0.1 mm 1 m/s 759 mmHg 84%

    22 Juillet, Lundi

    Heure Température Précipitation Vent Pression Humidité
    00:00 +26°C° 0 mm 1 m/s 759 mmHg 85%
    01:00 +26°C° 0 mm 1 m/s 758 mmHg 86%
    02:00 +26°C° 0 mm 1 m/s 758 mmHg 87%
    03:00 +26°C° 0 mm 1 m/s 758 mmHg 87%
    04:00 +26°C° 0 mm 1 m/s 758 mmHg 87%
    05:00 +26°C° 0 mm 1 m/s 758 mmHg 88%
    06:00 +26°C° 0 mm 1 m/s 758 mmHg 86%
    07:00 +27°C° 0 mm 2 m/s 758 mmHg 84%
    08:00 +27°C° 0 mm 2 m/s 759 mmHg 81%
    09:00 +29°C° 0 mm 2 m/s 759 mmHg 73%
    10:00 +31°C° 0 mm 2 m/s 759 mmHg 64%
    11:00 +34°C° 0 mm 2 m/s 759 mmHg 56%
    12:00 +35°C° 0 mm 2 m/s 758 mmHg 54%
    13:00 +35°C° 0 mm 2 m/s 757 mmHg 53%
    14:00 +36°C° 0 mm 2 m/s 757 mmHg 52%
    15:00 +35°C° 0 mm 3 m/s 756 mmHg 58%
    16:00 +33°C° 0 mm 4 m/s 756 mmHg 64%
    17:00 +32°C° 0 mm 5 m/s 756 mmHg 70%
    18:00 +30°C° 0.1 mm 5 m/s 756 mmHg 71%
    19:00 +29°C° 0.1 mm 5 m/s 757 mmHg 72%
    20:00 +28°C° 0.1 mm 4 m/s 757 mmHg 73%
    21:00 +28°C° 0.1 mm 4 m/s 758 mmHg 77%
    22:00 +27°C° 0.1 mm 3 m/s 758 mmHg 81%
    23:00 +26°C° 0.1 mm 2 m/s 758 mmHg 86%
    Voir plus